When you browse on this site, cookies collect data to enhance your experience and personalize the content and advertising you see.
Visit our Privacy Policy to learn more. By continuing to use the site, you agree to this use of cookies and data.
  • In Portugal
  • List of Countries
  • For 7 days
  • Water Temperature
  • Weather Map
  • Weather Widgets
  • user-avatar
    Login

    Hourly Weather Shusha

    Today, 17 November, Sunday

    Time Temperature Precipitation Wind Pressure Humidity
    00:00 -1°C° 0 mm 0 mps 668 mmHg 87%
    01:00 -1°C° 0 mm 0 mps 667 mmHg 86%
    02:00 -1°C° 0 mm 0 mps 667 mmHg 86%
    03:00 -2°C° 0 mm 0 mps 667 mmHg 83%
    04:00 -2°C° 0 mm 0 mps 667 mmHg 81%
    05:00 -2°C° 0 mm 0 mps 667 mmHg 78%
    06:00 -1°C° 0 mm 1 mps 667 mmHg 75%
    07:00 +1°C° 0 mm 1 mps 667 mmHg 66%
    08:00 +1°C° 0 mm 0 mps 668 mmHg 57%
    09:00 +3°C° 0 mm 0 mps 668 mmHg 48%
    10:00 +5°C° 0 mm 1 mps 668 mmHg 46%
    11:00 +6°C° 0 mm 1 mps 668 mmHg 43%
    12:00 +6°C° 0 mm 2 mps 668 mmHg 41%
    13:00 +5°C° 0 mm 2 mps 667 mmHg 43%
    14:00 +5°C° 0 mm 2 mps 667 mmHg 46%
    15:00 +5°C° 0 mm 2 mps 666 mmHg 48%
    16:00 +5°C° 0 mm 1 mps 666 mmHg 54%
    17:00 +4°C° 0 mm 1 mps 666 mmHg 60%
    18:00 +1°C° 0 mm 0 mps 666 mmHg 67%
    19:00 +1°C° 0 mm 0 mps 666 mmHg 66%
    20:00 +1°C° 0 mm 0 mps 666 mmHg 65%
    21:00 +1°C° 0 mm 0 mps 666 mmHg 65%
    22:00 0°C° 0 mm 0 mps 666 mmHg 65%
    23:00 0°C° 0 mm 0 mps 665 mmHg 65%

    Tomorrow, 18 November, Monday

    Time Temperature Precipitation Wind Pressure Humidity
    00:00 0°C° 0 mm 0 mps 665 mmHg 64%
    01:00 0°C° 0 mm 0 mps 665 mmHg 63%
    02:00 0°C° 0 mm 0 mps 665 mmHg 62%
    03:00 0°C° 0 mm 0 mps 664 mmHg 61%
    04:00 0°C° 0 mm 0 mps 664 mmHg 60%
    05:00 0°C° 0 mm 0 mps 664 mmHg 60%
    06:00 -1°C° 0 mm 0 mps 664 mmHg 60%
    07:00 +1°C° 0 mm 0 mps 665 mmHg 55%
    08:00 +3°C° 0 mm 0 mps 665 mmHg 50%
    09:00 +4°C° 0 mm 0 mps 666 mmHg 45%
    10:00 +6°C° 0 mm 1 mps 666 mmHg 44%
    11:00 +6°C° 0 mm 1 mps 665 mmHg 43%
    12:00 +6°C° 0 mm 2 mps 665 mmHg 43%
    13:00 +6°C° 0 mm 2 mps 665 mmHg 43%
    14:00 +7°C° 0 mm 1 mps 665 mmHg 43%
    15:00 +7°C° 0 mm 1 mps 664 mmHg 44%
    16:00 +6°C° 0 mm 1 mps 664 mmHg 50%
    17:00 +4°C° 0 mm 0 mps 664 mmHg 56%
    18:00 +2°C° 0 mm 0 mps 664 mmHg 62%
    19:00 +2°C° 0 mm 0 mps 664 mmHg 61%
    20:00 +2°C° 0 mm 0 mps 664 mmHg 61%
    21:00 +3°C° 0 mm 1 mps 664 mmHg 61%
    22:00 +3°C° 0 mm 1 mps 663 mmHg 61%
    23:00 +2°C° 0 mm 0 mps 663 mmHg 62%

    Day after tomorrow, 19 November, Tuesday

    Time Temperature Precipitation Wind Pressure Humidity
    00:00 +2°C° 0 mm 0 mps 663 mmHg 62%
    01:00 +2°C° 0 mm 0 mps 663 mmHg 60%
    02:00 +2°C° 0 mm 0 mps 663 mmHg 58%
    03:00 +2°C° 0 mm 0 mps 663 mmHg 56%
    04:00 +3°C° 0 mm 1 mps 663 mmHg 56%
    05:00 +3°C° 0 mm 1 mps 663 mmHg 57%
    06:00 +3°C° 0 mm 1 mps 663 mmHg 58%
    07:00 +4°C° 0 mm 1 mps 663 mmHg 54%
    08:00 +5°C° 0 mm 1 mps 663 mmHg 51%
    09:00 +6°C° 0 mm 1 mps 664 mmHg 47%
    10:00 +7°C° 0 mm 1 mps 664 mmHg 44%
    11:00 +8°C° 0 mm 1 mps 663 mmHg 42%
    12:00 +9°C° 0 mm 1 mps 663 mmHg 39%
    13:00 +8°C° 0 mm 2 mps 663 mmHg 41%
    14:00 +8°C° 0 mm 2 mps 663 mmHg 44%
    15:00 +8°C° 0 mm 2 mps 662 mmHg 46%
    16:00 +8°C° 0 mm 1 mps 662 mmHg 51%
    17:00 +7°C° 0 mm 1 mps 662 mmHg 57%
    18:00 +5°C° 0 mm 1 mps 662 mmHg 62%
    19:00 +5°C° 0 mm 1 mps 662 mmHg 62%
    20:00 +5°C° 0 mm 1 mps 662 mmHg 62%
    21:00 +4°C° 0 mm 1 mps 662 mmHg 63%
    22:00 +4°C° 0 mm 1 mps 662 mmHg 61%
    23:00 +4°C° 0 mm 1 mps 661 mmHg 60%

    20 November, Wednesday

    Time Temperature Precipitation Wind Pressure Humidity
    00:00 +4°C° 0 mm 1 mps 661 mmHg 58%
    01:00 +4°C° 0 mm 1 mps 661 mmHg 57%
    02:00 +3°C° 0 mm 1 mps 661 mmHg 56%
    03:00 +3°C° 0 mm 1 mps 661 mmHg 54%
    04:00 +3°C° 0 mm 1 mps 661 mmHg 53%
    05:00 +3°C° 0 mm 1 mps 661 mmHg 52%
    06:00 +3°C° 0 mm 1 mps 661 mmHg 50%
    07:00 +4°C° 0 mm 1 mps 661 mmHg 47%
    08:00 +6°C° 0 mm 1 mps 662 mmHg 43%
    09:00 +6°C° 0 mm 0 mps 662 mmHg 39%
    10:00 +8°C° 0 mm 1 mps 662 mmHg 38%
    11:00 +9°C° 0 mm 1 mps 662 mmHg 38%
    12:00 +9°C° 0 mm 2 mps 662 mmHg 37%
    13:00 +8°C° 0 mm 2 mps 662 mmHg 39%
    14:00 +8°C° 0 mm 2 mps 661 mmHg 41%
    15:00 +8°C° 0 mm 2 mps 661 mmHg 43%
    16:00 +7°C° 0 mm 1 mps 661 mmHg 51%
    17:00 +6°C° 0 mm 1 mps 660 mmHg 58%
    18:00 +3°C° 0 mm 0 mps 660 mmHg 66%
    19:00 +4°C° 0 mm 1 mps 660 mmHg 71%
    20:00 +3°C° 0 mm 1 mps 660 mmHg 75%
    21:00 +3°C° 0 mm 1 mps 660 mmHg 80%
    22:00 +2°C° 0 mm 1 mps 660 mmHg 83%
    23:00 +2°C° 0 mm 1 mps 660 mmHg 87%

    21 November, Thursday

    Time Temperature Precipitation Wind Pressure Humidity
    00:00 +2°C° 0 mm 1 mps 660 mmHg 90%
    01:00 +2°C° 0.1 mm 1 mps 660 mmHg 91%
    02:00 +2°C° 0.1 mm 1 mps 660 mmHg 91%
    03:00 +2°C° 0.1 mm 1 mps 660 mmHg 92%
    04:00 +2°C° 0.1 mm 1 mps 660 mmHg 92%
    05:00 +2°C° 0.1 mm 1 mps 660 mmHg 92%
    06:00 +2°C° 0.1 mm 1 mps 660 mmHg 92%
    07:00 +2°C° 0.2 mm 1 mps 661 mmHg 92%
    08:00 +2°C° 0.2 mm 1 mps 661 mmHg 91%
    09:00 +2°C° 0.2 mm 1 mps 661 mmHg 91%
    10:00 +2°C° 0.2 mm 1 mps 661 mmHg 90%
    11:00 +2°C° 0.2 mm 2 mps 661 mmHg 89%
    12:00 +2°C° 0.2 mm 2 mps 661 mmHg 88%
    13:00 +2°C° 0.2 mm 2 mps 661 mmHg 89%
    14:00 +2°C° 0.2 mm 2 mps 661 mmHg 90%
    15:00 +2°C° 0.2 mm 2 mps 661 mmHg 92%
    16:00 +1°C° 0.5 mm 2 mps 661 mmHg 93%
    17:00 +2°C° 0.5 mm 1 mps 662 mmHg 95%
    18:00 +2°C° 0.5 mm 1 mps 662 mmHg 96%
    19:00 +2°C° 0.9 mm 1 mps 663 mmHg 96%
    20:00 +1°C° 0.9 mm 2 mps 663 mmHg 96%
    21:00 -1°C° 0.9 mm 2 mps 664 mmHg 96%
    22:00 -1°C° 1.1 mm 2 mps 664 mmHg 97%
    23:00 -1°C° 1.1 mm 2 mps 664 mmHg 97%

    22 November, Friday

    Time Temperature Precipitation Wind Pressure Humidity
    00:00 -2°C° 1.1 mm 2 mps 664 mmHg 97%
    01:00 -2°C° 0.6 mm 2 mps 664 mmHg 97%
    02:00 -2°C° 0.6 mm 2 mps 664 mmHg 97%
    03:00 -3°C° 0.6 mm 2 mps 665 mmHg 96%
    04:00 -3°C° 0.3 mm 2 mps 665 mmHg 96%
    05:00 -1°C° 0.3 mm 1 mps 665 mmHg 96%
    06:00 -2°C° 0.3 mm 1 mps 665 mmHg 96%
    07:00 -1°C° 0.2 mm 1 mps 666 mmHg 95%
    08:00 -1°C° 0.2 mm 1 mps 666 mmHg 94%
    09:00 -1°C° 0.2 mm 1 mps 666 mmHg 93%
    10:00 0°C° 0.2 mm 1 mps 666 mmHg 93%
    11:00 -2°C° 0.2 mm 2 mps 666 mmHg 92%
    12:00 -2°C° 0.2 mm 2 mps 666 mmHg 91%
    13:00 -2°C° 0.1 mm 2 mps 666 mmHg 92%
    14:00 -2°C° 0.1 mm 2 mps 666 mmHg 93%
    15:00 -2°C° 0.1 mm 2 mps 666 mmHg 94%
    16:00 0°C° 0.2 mm 1 mps 666 mmHg 95%
    17:00 0°C° 0.2 mm 1 mps 666 mmHg 96%
    18:00 -1°C° 0.2 mm 1 mps 666 mmHg 97%
    19:00 -1°C° 0.1 mm 1 mps 666 mmHg 97%
    20:00 -1°C° 0.1 mm 1 mps 666 mmHg 96%
    21:00 -1°C° 0.1 mm 1 mps 666 mmHg 96%
    22:00 -1°C° 0.1 mm 1 mps 666 mmHg 95%
    23:00 -3°C° 0.1 mm 0 mps 666 mmHg 95%
    Show more